User: anonymous   Login
Location: Unspecified
(0.0000°N, 0.0000°E)
Time: 18:53:20
(UTC+00:00)
Language:

CHUBUSAT 2 - Orbit

View from above orbital plane
View from above orbital plane
View from above satellite
View from above satellite

Ground track
Ground track

The orbit data is extracted from the following two-line orbital elements,

1 41338U 16012B   17145.72310896 +.00000425 +00000-0 +26670-4 0  9999
2 41338 031.0032 254.9305 0013914 197.7248 162.2903 14.99729191069611
Epoch (UTC): 25 May 2017 17:21:16
Eccentricity: 0.0013914
inclination: 31.0032°
perigee height: 558 km
apogee height: 577 km
right ascension of ascending node: 254.9305°
argument of perigee: 197.7248°
revolutions per day: 14.99729191
mean anomaly at epoch: 162.2903°
orbit number at epoch: 6961

The dashed part of the orbit path shows where the satellite is in the earth's shadow,  

DLR